This is the latest recevied weather packets stored in our database for station/object KE8URB. If no packets are shown the sender has not sent any weather packets the latest 10 day(s).
| Time | Temp. | Humidity | Pressure | Rain* | Wind** | Luminosity | Snow |
|---|---|---|---|---|---|---|---|
| 1787936005 | 23.89° C | 77% | 1021.4 hPa | 0 mm | - | 54 W/m² | - |
| 1787935700 | 23.33° C | 79% | 1021.4 hPa | 0 mm | - | 97 W/m² | - |
| 1787935396 | 23.89° C | 77% | 1021.4 hPa | 0 mm | - | 105 W/m² | - |
| 1787935092 | 24.44° C | 78% | 1021.5 hPa | 0 mm | - | 93 W/m² | - |
| 1787934787 | 23.89° C | 77% | 1021.6 hPa | 0 mm | - | 505 W/m² | - |
| 1787934486 | 23.89° C | 79% | 1021.5 hPa | 0 mm | - | 481 W/m² | - |
| 1787934181 | 23.33° C | 82% | 1021.4 hPa | 0 mm | - | 264 W/m² | - |
| 1787933881 | 22.78° C | 84% | 1021.7 hPa | 0 mm | - | 83 W/m² | - |
| 1787933575 | 22.78° C | 82% | 1021.5 hPa | 0 mm | - | 65 W/m² | - |
| 1787933275 | 23.33° C | 82% | 1021.6 hPa | 0 mm | - | 65 W/m² | - |
| 1787932974 | 23.89° C | 79% | 1021.3 hPa | 0 mm | - | 112 W/m² | - |
| 1787932673 | 24.44° C | 77% | 1021.2 hPa | 0 mm | - | 103 W/m² | - |
| 1787932368 | 23.33° C | 78% | 1021.3 hPa | 0 mm | - | 136 W/m² | - |
| 1787932063 | 23.33° C | 78% | 1021.3 hPa | 0 mm | - | 104 W/m² | - |
| 1787931761 | 23.89° C | 79% | 1021.4 hPa | 0 mm | - | 77 W/m² | - |
| 1787931456 | 23.33° C | 78% | 1021.2 hPa | 0 mm | - | 107 W/m² | - |
| 1787931150 | 23.33° C | 77% | 1021.4 hPa | 0 mm | - | 135 W/m² | - |
| 1787930850 | 23.33° C | 76% | 1021.2 hPa | 0 mm | - | 89 W/m² | - |
| 1787930549 | 23.89° C | 79% | 1021.1 hPa | 0 mm | - | 307 W/m² | - |
| 1787930244 | 23.33° C | 77% | 1021.1 hPa | 0 mm | - | 239 W/m² | - |
| 1787929943 | 23.33° C | 79% | 1021.2 hPa | 0 mm | - | 55 W/m² | - |
| 1787929638 | 22.78° C | 80% | 1021.2 hPa | 0 mm | - | 95 W/m² | - |
| 1787929333 | 22.78° C | 79% | 1021 hPa | 0 mm | - | 180 W/m² | - |
| 1787929030 | 22.78° C | 80% | 1021.1 hPa | 0 mm | - | 52 W/m² | - |
| 1787928726 | 22.78° C | 82% | 1021.1 hPa | 0 mm | - | 381 W/m² | - |
* Rain latest hour (hover to see other rain measurements)
** Current wind speed in m/s (hover to see current wind gust speed)